Weather History for Livingston, MT

Change the Weather History Date:

Sunday, December 30, 2012

  Actual Average Record
Temperature  
Mean Temperature 20 °F 26 °F  
Max Temperature 27 °F 36 °F 57 °F (1980)
Min Temperature 14 °F 16 °F -24 °F (1968)
Degree Days  
Heating Degree Days 44 39  
Month to date heating degree days 1166  
Since 1 July heating degree days 3125  
Moisture  
Dew Point 11 °F    
Average Humidity 67    
Maximum Humidity 78    
Minimum Humidity 56    
Precipitation  
Precipitation 0.00 in 0.01 in 0.45 in (1987)
Month to date precipitation 0.50  
Year to date precipitation 14.79  
Sea Level Pressure  
Sea Level Pressure 30.15 in    
Wind  
Wind Speed 9 mph (West)    
Max Wind Speed 17 mph    
Max Gust Speed -    
Visibility 10 miles    
Events      
T = Trace of Precipitation, MM = Missing Value Source: NWS Daily Summary

Daily Weather History Graph

Daily Weather History Graph

Search for Another Location

Airport:

Trip Planner

Search our weather history database for the weather conditions in past years. The results will help you decide how hot, cold, wet, or windy it might be!

Date:

Astronomy

Dec. 30, 2012 Rise Set
Actual Time 8:02 AM MST 4:46 PM MST
Civil Twilight 7:28 AM MST 5:21 PM MST
Nautical Twilight 6:50 AM MST 5:58 PM MST
Astronomical Twilight 6:14 AM MST 6:34 PM MST
Moon 7:29 PM MST (12/30) 9:05 AM MST (12/30)
Length of Visible Light 9h 52m
Length of Day
8h 44m
Waning Gibbous, 95% of the Moon is Illuminated
Dec 30
Waning Gibbous
Jan 4
Last Quarter
Jan 11
New
Jan 18
First Quarter
Jan 26
Full

Hourly Weather History & Observations

Time (MST) Temp. Windchill Dew Point Humidity Pressure Visibility Wind Dir Wind Speed Gust Speed Precip Events Conditions
12:53 AM 14.0 °F 2.0 °F 3.9 °F 64% 30.09 in 10.0 mi WNW 9.2 mph - N/A   Overcast
1:53 AM 17.1 °F 8.7 °F 6.1 °F 62% 30.08 in 10.0 mi WNW 5.8 mph - N/A   Overcast
2:53 AM 16.0 °F 6.3 °F 7.0 °F 68% 30.11 in 10.0 mi WNW 6.9 mph - N/A   Overcast
3:53 AM 19.9 °F 11.1 °F 9.0 °F 62% 30.12 in 10.0 mi West 6.9 mph - N/A   Overcast
4:53 AM 21.9 °F 11.7 °F 12.9 °F 68% 30.12 in 8.0 mi West 9.2 mph - N/A   Overcast
5:53 AM 19.9 °F 9.3 °F 12.9 °F 74% 30.15 in 10.0 mi WSW 9.2 mph - N/A   Overcast
6:53 AM 19.9 °F 10.1 °F 12.0 °F 71% 30.17 in 10.0 mi WNW 8.1 mph - N/A   Overcast
7:53 AM 18.0 °F 7.7 °F 12.0 °F 78% 30.18 in 10.0 mi WNW 8.1 mph - N/A   Overcast
8:53 AM 19.9 °F 10.1 °F 14.0 °F 78% 30.19 in 10.0 mi West 8.1 mph - N/A   Overcast
9:53 AM 23.0 °F 11.7 °F 15.1 °F 72% 30.18 in 10.0 mi West 11.5 mph - N/A   Overcast
10:53 AM 24.1 °F 16.0 °F 15.1 °F 69% 30.19 in 10.0 mi NW 6.9 mph - N/A   Scattered Clouds
11:53 AM 24.1 °F 14.4 °F 14.0 °F 65% 30.17 in 10.0 mi NW 9.2 mph - N/A   Clear
12:53 PM 25.0 °F 16.3 °F 14.0 °F 63% 30.15 in 10.0 mi NNW 8.1 mph - N/A   Clear
1:53 PM 27.0 °F 18.7 °F 14.0 °F 58% 30.13 in 10.0 mi NW 8.1 mph - N/A   Clear
2:53 PM 27.0 °F 18.7 °F 12.9 °F 56% 30.14 in 10.0 mi WNW 8.1 mph - N/A   Clear
3:53 PM 25.0 °F 14.8 °F 12.9 °F 60% 30.14 in 10.0 mi West 10.4 mph - N/A   Clear
4:53 PM 21.9 °F 9.8 °F 10.9 °F 63% 30.16 in 10.0 mi West 12.7 mph - N/A   Scattered Clouds
5:53 PM 19.9 °F 6.7 °F 10.0 °F 65% 30.17 in 10.0 mi West 13.8 mph - N/A   Clear
6:53 PM 19.9 °F 6.7 °F 10.0 °F 65% 30.15 in 10.0 mi West 13.8 mph - N/A   Clear
7:53 PM 19.9 °F 5.2 °F 10.0 °F 65% 30.17 in 10.0 mi West 17.3 mph - N/A   Clear
8:53 PM 17.1 °F 3.6 °F 9.0 °F 71% 30.16 in 10.0 mi West 12.7 mph - N/A   Clear
9:53 PM 18.0 °F 6.1 °F 9.0 °F 68% 30.16 in 10.0 mi West 10.4 mph - N/A   Clear
10:53 PM 18.0 °F 6.1 °F 9.0 °F 68% 30.17 in 10.0 mi WSW 10.4 mph - N/A   Clear
11:53 PM 15.1 °F 3.3 °F 7.0 °F 70% 30.19 in 10.0 mi WSW 9.2 mph - N/A   Scattered Clouds